SCP
0 0 0 0 0 0 0 0 0 0 0 0 0 0 0 0 0 0 0 0 0 0 0 0 0 0 0 0 0 0 0 0 0 0 0 0 0 0 0 0 0 0 0 0
0 0 0 0 0 0 0 0 0 0 0 0 0 0 0 0 1 1 1 1 1 1 1 0 0 0 0 0 0 0 0 0 0 0 0 0 0 0 0 0 0 0 0 0
0 0 0 0 0 0 0 0 0 0 0 0 1 1 1 1 1 1 1 1 1 1 1 1 1 0 0 0 0 0 0 0 0 0 0 0 0 0 0 0 0 0 0 0
0 0 0 0 0 0 0 0 0 0 0 0 1 1 1 1 1 1 1 1 1 1 1 1 1 0 0 0 0 0 0 0 0 0 0 0 0 0 0 0 0 0 0 0
0 0 0 0 0 0 0 0 0 0 0 0 0 1 1 1 1 1 1 1 1 1 1 1 1 0 0 0 0 0 0 0 0 0 0 0 0 0 0 0 0 0 0 0
0 0 0 0 0 0 0 0 0 0 0 0 0 0 0 0 0 0 0 0 0 1 1 1 0 0 0 0 0 0 0 0 0 0 0 0 0 0 0 0 0 0 0 0
0 0 0 0 0 0 0 0 0 0 0 0 0 0 0 0 0 0 0 0 0 1 1 0 0 0 0 0 0 0 0 0 0 0 0 0 0 0 0 0 0 0 0 0
0 0 0 0 0 0 0 0 0 0 0 0 0 0 0 0 0 0 0 0 0 0 0 0 0 0 0 0 0 0 0 0 0 0 0 0 0 0 0 0 0 0 0 0
0 0 0 0 0 0 0 0 0 0 0 0 0 0 0 0 0 0 0 0 0 0 0 0 0 0 0 0 0 0 0 0 0 0 0 0 0 0 0 0 0 0 0 0
0 0 0 0 0 0 0 0 0 0 0 0 0 0 0 0 0 0 0 0 0 0 0 0 0 0 0 0 0 0 0 0 0 0 0 0 0 0 0 0 0 0 0 0
0 0 0 0 0 0 0 0 0 0 0 0 0 0 0 0 0 0 0 0 0 0 0 0 0 0 0 0 0 0 0 0 0 0 0 0 0 0 0 0 0 0 0 0
0 0 0 0 0 0 0 0 0 0 0 0 0 0 0 0 0 0 0 0 0 0 0 0 0 0 0 0 0 0 0 0 0 0 0 0 0 0 0 0 0 0 0 0
0 0 0 0 0 0 0 0 0 0 0 0 0 0 0 0 0 0 0 0 0 0 0 0 0 0 0 0 0 0 0 0 0 0 0 0 0 0 0 0 0 0 0 0
0 0 0 0 0 0 0 0 0 0 0 0 0 0 0 0 0 0 0 0 0 0 0 0 0 0 0 0 0 0 0 0 0 0 0 0 0 0 0 0 0 0 0 0
0 0 0 0 0 0 0 0 0 0 0 0 0 0 0 0 0 0 0 0 0 0 0 0 0 0 0 0 0 0 0 0 0 0 0 0 0 0 0 0 0 0 0 0
0 0 0 0 0 0 0 0 0 0 0 -0 0 0 0 0 0 0 0 0 0 0 0 0 0 0 0 0 0 0 0 0 0 0 0 0 0 0 0 0 0 0 0 0
0 0 0 0 0 0 0 0 0 0 -0 -0 0 0 0 0 0 0 0 0 0 0 0 0 0 0 0 -0 -0 -0 0 0 -0 -0 0 0 0 0 0 0 0 0 0 0
0 0 0 0 0 0 0 0 0 0 0 0 0 0 0 0 0 0 0 0 0 0 0 0 0 0 0 -0 -0 -0 0 0 -0 -0 0 -0 0 0 0 0 0 0 0 0
0 0 0 0 0 0 0 0 0 0 0 0 0 0 0 0 0 0 0 0 0 0 0 0 -0 -0 -0 -0 -0 -0 0 0 0 0 0 0 0 0 0 0 0 0 0 0
0 0 0 0 0 0 0 0 0 0 0 0 0 0 0 0 0 0 0 0 0 0 0 0 0 0 -0 -0 -0 0 0 0 0 0 0 0 0 0 0 0 0 0 0 0
0 0 0 0 0 0 0 0 0 0 0 0 0 0 0 0 0 0 0 0 0 0 0 0 0 0 0 0 0 0 0 0 0 0 0 0 0 0 0 0 0 0 0 0
0 0 0 0 0 0 0 0 0 0 0 0 0 0 0 0 0 0 0 0 0 -0 0 0 0 0 0 0 0 0 0 0 0 0 0 0 0 0 0 0 0 0 0 0
0 0 0 0 0 0 0 0 0 0 0 0 0 0 0 0 0 0 0 -0 -0 -0 0 0 0 0 0 0 0 0 0 0 0 0 0 0 0 0 0 0 0 0 0 0
0 0 0 0 0 0 0 0 0 0 0 0 0 -0 -0 -0 0 0 0 0 -0 0 0 0 0 0 0 0 0 0 0 0 0 0 0 0 0 0 0 0 0 0 0 0
0 0 0 0 0 0 0 0 0 0 0 0 -0 -0 -0 -0 -0 0 0 0 0 0 0 0 0 0 0 0 0 0 0 0 0 0 0 0 0 0 0 0 0 0 0 0
0 0 0 0 0 0 0 0 -0 -0 0 0 -0 -0 -0 -0 -0 -0 0 0 0 0 0 0 0 0 0 0 0 0 0 0 0 0 0 0 0 0 0 0 0 0 0 0
0 0 0 0 0 -0 -0 -0 -0 -0 0 0 0 0 0 0 0 -0 0 0 0 0 0 0 0 0 0 0 0 0 0 0 0 0 0 0 0 0 0 0 0 0 0 0
Wind_Speed
3 2 1 1 1 0 3 5 6 6 6 6 4 4 3 4 5 5 5 6 8 9 8 8 7 7 6 6 5 6 5 5 5 5 5 5 5 5 5 5 6 5 5 4
2 2 3 2 3 3 2 2 3 5 1 1 2 3 3 3 5 5 5 5 7 7 8 9 9 8 7 6 6 6 6 6 5 5 5 5 5 5 5 5 5 5 4 4
1 3 4 2 2 2 3 3 3 3 2 3 4 4 2 2 4 4 3 3 5 7 7 7 7 8 8 7 6 6 6 6 5 5 5 4 5 5 5 5 4 4 4 4
2 3 1 4 2 5 8 7 5 5 4 5 5 4 4 4 4 4 3 3 2 3 5 5 6 6 6 6 6 6 6 5 5 6 6 5 4 5 4 4 4 4 4 4
3 2 2 2 3 1 5 5 5 6 6 5 5 6 6 5 5 3 2 2 1 2 4 5 6 6 6 6 6 6 6 5 5 6 6 5 5 4 4 4 4 3 4 4
4 3 3 3 5 2 7 3 3 4 4 3 3 3 0 3 5 5 4 3 2 3 5 6 5 6 7 6 6 6 5 5 4 5 5 5 5 4 4 4 4 4 4 3
3 2 2 3 6 3 5 4 1 1 2 3 2 3 3 3 5 6 5 5 5 5 5 4 5 7 8 6 5 5 5 5 5 4 5 5 5 4 4 5 5 5 5 4
2 3 4 4 4 3 3 2 2 2 3 5 6 6 5 6 6 6 6 7 6 7 6 5 5 7 9 6 4 5 6 7 6 5 4 4 5 5 5 6 6 5 6 5
3 3 1 1 3 2 2 4 2 3 4 7 6 6 5 6 6 6 6 7 7 8 9 8 7 7 9 6 6 7 8 7 6 6 6 6 6 6 5 5 5 5 5 4
2 1 2 4 5 4 4 4 3 4 5 7 7 6 7 6 7 7 7 7 7 10 10 9 8 9 8 7 7 9 9 7 6 7 7 7 5 5 5 4 4 5 4 4
1 0 2 5 5 5 6 7 7 6 6 7 9 9 8 8 8 7 8 7 8 9 10 9 9 10 8 7 8 10 9 8 7 7 7 8 7 6 6 4 3 5 4 3
3 3 2 1 2 5 7 7 7 8 8 8 8 10 9 9 8 8 9 8 10 10 10 10 10 10 8 7 8 9 8 7 5 6 6 6 6 7 11 9 10 10 7 5
4 4 5 4 4 5 7 8 8 8 9 9 9 10 10 10 9 9 10 10 10 10 9 9 10 10 8 7 8 9 8 6 5 5 5 5 5 6 5 7 10 10 9 8
7 7 5 4 4 6 8 9 10 10 10 10 10 10 11 11 11 11 11 10 10 10 10 10 11 10 7 7 8 9 8 8 6 5 4 4 5 5 5 5 4 4 6 8
4 5 6 7 7 7 7 10 11 11 11 10 10 10 10 12 12 11 9 9 11 11 10 10 11 9 8 8 9 8 7 5 5 5 5 5 5 5 5 6 5 4 4 5
6 7 8 9 9 8 9 10 12 11 10 10 10 10 11 12 12 10 9 9 11 10 9 9 9 7 8 9 9 8 7 10 8 6 6 6 5 6 5 5 5 4 4 3
9 8 9 9 9 9 9 9 11 11 11 12 11 11 11 11 11 10 9 8 9 9 8 8 7 7 8 8 7 5 5 7 10 7 6 6 6 6 5 5 5 4 4 4
7 8 9 11 11 11 11 11 11 11 11 11 11 10 10 10 9 8 7 7 9 10 8 7 6 7 8 7 6 5 5 5 6 6 6 6 6 5 5 5 5 5 4 5
9 10 10 10 10 11 11 10 10 10 10 10 10 10 9 8 8 7 8 8 9 8 6 7 10 9 7 8 7 5 6 6 6 6 6 7 7 6 5 5 5 4 4 4
10 10 11 11 11 11 11 11 10 10 9 10 10 10 10 9 9 9 9 8 5 3 4 7 8 7 6 7 9 6 6 7 6 6 6 6 6 5 5 5 5 5 5 4
11 12 13 13 12 11 11 11 11 11 10 10 11 10 10 8 8 7 8 6 4 5 6 9 6 5 5 7 9 6 7 7 6 6 6 6 6 5 5 5 5 5 4 4
10 11 12 12 12 11 10 10 11 12 11 11 11 10 10 9 8 7 6 3 3 6 6 5 5 8 9 10 7 7 7 7 6 5 5 5 5 5 5 4 4 4 4 3
10 10 11 11 12 11 11 10 10 10 10 10 9 9 8 6 5 5 4 2 3 7 6 5 8 12 12 8 6 7 7 6 6 5 5 4 4 4 4 4 4 3 3 3
10 11 10 10 11 12 11 9 8 8 9 8 8 8 8 6 5 3 3 5 7 8 5 7 12 13 11 6 6 6 6 5 5 4 4 4 4 4 4 4 3 3 3 4
10 11 11 11 9 8 8 9 9 9 9 7 7 7 6 5 5 3 4 5 7 7 5 8 12 11 7 5 5 5 5 5 5 4 4 4 4 4 4 4 4 4 3 3
9 8 7 7 7 7 6 7 7 6 6 7 6 5 5 4 5 4 4 5 7 7 5 4 5 6 5 5 5 5 4 5 5 5 4 4 4 4 4 4 5 3 3 3
9 8 7 7 6 6 6 6 6 6 6 7 6 5 5 5 5 5 5 4 4 5 4 4 4 4 4 4 4 4 4 4 4 4 4 4 3 3 3 4 3 3 3 3
Wind_Direction
177 181 121 88 16 73 130 167 174 198 187 218 216 190 184 156 143 145 157 166 171 170 168 165 166 169 173 175 170 163 160 165 172 168 166 168 172 172 162 160 165 157 155 160
22 31 53 35 19 30 55 93 134 137 146 219 114 94 101 121 132 153 164 165 168 163 164 170 173 174 175 176 172 160 158 163 162 156 156 159 162 154 144 143 141 139 146 152
344 343 41 4 345 70 60 39 123 140 194 133 87 82 99 97 99 114 126 137 149 163 165 171 175 172 173 175 165 159 159 159 157 153 148 150 152 141 142 146 143 143 150 151
101 55 176 245 347 83 87 56 65 101 112 124 126 102 74 76 80 66 54 57 99 142 154 157 158 156 159 159 155 154 152 152 152 151 150 148 141 144 150 145 147 154 154 158
114 147 249 319 352 34 102 52 35 89 90 92 113 73 41 38 59 65 57 66 91 137 140 138 145 151 144 143 143 142 148 153 158 157 153 152 151 155 152 139 137 140 135 134
117 140 201 257 315 328 101 93 11 79 105 115 100 90 357 17 41 47 43 47 72 95 102 114 129 136 135 136 136 145 151 150 145 145 143 143 144 142 134 130 136 128 113 109
137 162 236 306 319 24 108 197 254 110 115 104 100 142 128 61 44 49 48 51 67 82 87 100 117 122 125 128 139 146 129 117 113 121 131 134 131 124 117 115 112 109 101 84
128 149 236 325 26 82 179 179 118 96 95 97 103 101 89 72 57 52 55 59 67 79 74 69 88 110 111 111 119 110 105 102 99 97 105 107 106 103 102 109 107 103 99 85
166 184 232 11 83 75 113 107 110 113 118 118 110 104 90 76 70 66 66 67 69 79 74 62 64 86 94 92 93 98 97 93 88 85 83 90 100 103 95 95 102 101 100 95
84 41 35 58 73 56 69 84 89 108 117 119 117 108 96 86 82 76 70 68 68 74 74 66 62 70 75 79 90 97 97 93 87 84 76 68 71 79 91 93 103 106 107 107
99 110 52 40 50 65 71 71 75 82 90 104 113 107 100 95 89 84 76 69 70 73 74 70 67 66 64 68 83 89 88 87 85 85 86 77 67 57 69 61 89 114 116 116
193 196 137 68 40 78 83 75 82 91 83 83 101 105 100 94 88 86 82 77 76 73 71 67 68 64 56 59 76 87 86 84 86 92 93 94 92 72 53 65 70 77 92 104
152 125 120 114 77 82 90 87 86 90 96 95 91 99 98 95 88 86 83 79 77 75 72 69 67 60 51 56 69 76 80 82 84 88 95 99 99 99 85 55 56 61 66 71
128 119 111 110 105 95 98 97 93 87 86 90 92 93 95 93 89 85 82 81 80 75 68 65 63 53 44 59 70 72 73 74 78 80 82 89 92 92 94 94 73 43 41 56
102 113 129 122 111 104 107 109 103 97 94 91 90 93 94 94 89 83 79 78 76 71 66 64 61 48 40 55 64 67 68 67 69 71 72 77 82 85 84 83 81 71 55 43
109 111 121 124 123 121 119 115 111 109 106 101 96 94 94 94 89 84 76 75 75 68 62 62 57 44 43 53 59 63 64 67 73 73 69 71 75 80 81 81 79 74 66 47
131 138 138 135 129 122 119 117 116 116 112 109 106 103 99 95 91 85 77 72 75 70 60 59 52 43 45 50 57 61 63 65 67 71 67 70 75 78 82 83 79 71 60 57
133 138 142 140 134 125 121 119 117 116 114 114 110 105 102 100 99 94 84 75 70 61 47 44 49 50 47 46 52 55 61 64 68 73 73 72 73 76 78 78 77 75 58 51
117 123 126 129 128 125 124 123 121 118 118 116 112 108 104 99 95 88 78 70 67 59 33 36 49 50 45 42 51 57 65 70 70 69 72 74 71 68 72 74 73 70 64 58
117 122 122 120 119 120 121 121 119 115 115 114 110 104 97 93 92 87 80 70 58 66 56 53 52 45 38 43 55 62 68 73 74 70 70 71 72 68 67 68 68 65 61 60
116 119 119 118 115 115 118 119 117 114 111 109 107 105 102 97 92 88 84 71 33 48 59 55 50 42 45 55 59 63 68 70 70 70 72 73 72 69 67 66 66 66 62 56
115 116 117 116 114 113 112 112 112 111 108 106 105 105 102 98 93 84 74 82 67 68 63 49 48 57 64 65 64 65 67 70 71 71 71 70 71 70 68 67 65 64 64 59
111 110 111 113 113 110 105 105 108 110 110 110 110 109 106 104 104 102 86 48 73 75 69 56 61 66 69 65 63 64 65 68 69 71 72 70 69 70 68 64 61 58 56 51
106 107 108 107 106 105 104 104 104 106 107 105 106 109 109 102 84 78 102 89 85 83 71 66 69 73 71 65 64 63 61 64 68 67 67 66 65 64 64 62 56 51 50 47
104 104 103 102 100 102 105 104 97 95 96 95 94 94 98 106 112 105 91 86 87 82 70 66 74 76 71 66 65 63 61 61 68 70 66 66 63 61 60 56 52 51 46 40
99 98 97 99 105 105 103 101 100 98 98 95 89 89 90 90 96 93 85 83 83 82 75 69 74 73 71 67 65 64 61 59 61 62 64 66 65 66 63 57 53 50 45 39
92 92 92 88 87 94 100 104 106 105 106 109 104 96 95 93 90 91 89 83 80 78 75 71 73 79 80 74 66 61 59 60 61 62 63 62 63 65 64 62 56 51 46 44